KC9ZAR-13 Weather Reports


time (UTC)temp
C
wind
direction
speed
KPH
gust
KPH
rain 1hr
cm
rain 24hr
cm
rain mn
cm
humidity
%
barometer
mb
20260509174006 21 197 9.7 14.5 0.00 0.25 0.25 69 1007.4
20260509173505 21 205 11.3 19.3 0.00 0.25 0.25 68 1007.5
20260509173005 21 227 14.5 19.3 0.00 0.25 0.25 69 1007.4
20260509172505 21 218 6.4 19.3 0.00 0.25 0.25 69 1007.6
20260509172005 20 197 8.0 19.3 0.00 0.25 0.25 68 1007.6
20260509171505 21 225 9.7 19.3 0.00 0.25 0.25 68 1007.7
20260509171005 20 209 11.3 16.1 0.00 0.25 0.25 69 1007.7
20260509170505 20 213 9.7 19.3 0.00 0.25 0.25 71 1007.7
20260509170005 20 215 9.7 19.3 0.00 0.25 0.25 70 1007.7
20260509165505 20 259 12.9 25.7 0.00 0.25 0.25 68 1007.8
20260509165005 20 205 11.3 20.9 0.00 0.25 0.25 70 1007.8
20260509164505 20 209 14.5 20.9 0.00 0.25 0.25 71 1007.7
20260509164005 20 211 9.7 22.5 0.00 0.25 0.25 72 1007.7
20260509163005 20 250 11.3 19.3 0.00 0.25 0.25 72 1007.6
20260509162505 20 256 9.7 16.1 0.00 0.25 0.25 73 1007.5
20260509161005 18 222 4.8 14.5 0.00 0.25 0.25 75 1007.4
20260509160505 18 247 6.4 16.1 0.00 0.25 0.25 74 1007.5
20260509160005 18 243 11.3 16.1 0.00 0.25 0.25 74 1007.4
20260509155505 18 237 8.0 14.5 0.00 0.25 0.25 75 1007.6
20260509155005 18 211 8.0 16.1 0.00 0.25 0.25 77 1007.6
20260509154505 18 227 6.4 14.5 0.00 0.25 0.25 76 1007.4
20260509153505 18 198 4.8 11.3 0.00 0.25 0.25 79 1007.4
20260509153005 17 230 8.0 19.3 0.00 0.25 0.25 77 1007.5
20260509152504 18 221 11.3 19.3 0.00 0.25 0.25 77 1007.4
20260509152005 18 232 8.0 12.9 0.00 0.25 0.25 78 1007.5
20260509151005 18 201 9.7 19.3 0.00 0.25 0.25 77 1007.4
20260509150505 18 226 8.0 14.5 0.00 0.25 0.25 77 1007.4
20260509150005 18 276 9.7 16.1 0.00 0.25 0.25 78 1007.3
20260509145504 18 231 8.0 19.3 0.00 0.25 0.25 78 1007.3
20260509145005 18 248 12.9 22.5 0.00 0.25 0.25 78 1007.2
20260509144504 17 197 11.3 20.9 0.00 0.25 0.25 78 1007.1
20260509144006 17 189 8.0 14.5 0.00 0.25 0.25 81 1007.1
20260509143505 17 208 8.0 19.3 0.00 0.25 0.25 81 1007.1
20260509143004 17 212 6.4 14.5 0.00 0.25 0.25 83 1007.0
20260509142505 17 193 4.8 16.1 0.00 0.25 0.25 84 1007.1
20260509142005 17 232 8.0 16.1 0.00 0.25 0.25 84 1007.2
20260509141505 17 205 8.0 12.9 0.00 0.25 0.25 84 1007.3
20260509141005 17 208 4.8 8.0 0.00 0.25 0.25 85 1007.2
20260509135005 16 193 4.8 12.9 0.00 0.25 0.25 87 1006.9
20260509134504 16 212 4.8 9.7 0.00 0.25 0.25 88 1006.8
20260509134005 16 192 3.2 12.9 0.00 0.25 0.25 90 1006.8
20260509133506 16 190 4.8 14.5 0.00 0.25 0.25 90 1006.9
20260509133005 16 211 3.2 9.7 0.00 0.25 0.25 91 1006.8
20260509132505 15 193 4.8 9.7 0.00 0.25 0.25 92 1006.8
20260509132005 15 184 4.8 9.7 0.00 0.25 0.25 92 1006.8
20260509131505 15 185 4.8 9.7 0.00 0.25 0.25 93 1006.8
20260509130505 15 199 3.2 4.8 0.00 0.25 0.25 95 1006.7
20260509130005 15 196 3.2 8.0 0.00 0.25 0.25 95 1006.7
20260509125005 14 196 3.2 11.3 0.00 0.25 0.25 96 1006.8
20260509124504 14 196 3.2 9.7 0.00 0.25 0.25 96 1006.7
20260509123505 13 215 4.8 11.3 0.00 0.25 0.25 96 1006.8
20260509123005 13 212 4.8 9.7 0.00 0.25 0.25 96 1006.8
20260509122005 13 196 4.8 9.7 0.00 0.25 0.25 96 1006.7
20260509121504 13 210 3.2 4.8 0.00 0.25 0.25 96 1006.8
20260509121004 13 202 3.2 4.8 0.00 0.25 0.25 96 1006.8
20260509120505 13 201 3.2 4.8 0.00 0.25 0.25 96 1006.8
20260509120005 13 198 3.2 4.8 0.00 0.25 0.25 96 1006.8
20260509115506 13 194 3.2 4.8 0.00 0.25 0.25 96 1006.7
20260509115004 13 173 1.6 4.8 0.00 0.25 0.25 96 1006.7
20260509114505 13 173 1.6 4.8 0.00 0.25 0.25 96 1006.5
20260509113505 13 171 1.6 3.2 0.00 0.25 0.25 96 1006.1
20260509113005 13 171 0.0 1.6 0.00 0.25 0.25 96 1006.0
20260509112504 13 171 0.0 1.6 0.00 0.25 0.25 96 1006.0
20260509112004 13 171 1.6 3.2 0.00 0.25 0.25 96 1006.0
20260509111505 13 171 0.0 3.2 0.00 0.25 0.25 96 1005.9
20260509110505 13 171 1.6 4.8 0.00 0.25 0.25 96 1006.0
20260509110004 13 171 0.0 3.2 0.00 0.25 0.25 95 1005.9
20260509105504 13 171 1.6 4.8 0.00 0.25 0.25 95 1005.9
20260509104504 13 171 1.6 3.2 0.00 0.25 0.25 95 1005.7
20260509104004 13 171 3.2 8.0 0.00 0.25 0.25 95 1005.6
20260509103504 13 144 1.6 4.8 0.00 0.25 0.25 95 1005.5
20260509103004 13 144 0.0 3.2 0.00 0.25 0.25 95 1005.6
20260509102505 13 144 0.0 3.2 0.00 0.25 0.25 95 1005.6
20260509102005 13 144 1.6 4.8 0.00 0.25 0.25 95 1005.4
20260509101504 13 123 0.0 1.6 0.00 0.25 0.25 95 1005.4
20260509100505 13 121 0.0 1.6 0.00 0.25 0.25 95 1005.3
20260509100005 13 121 1.6 4.8 0.00 0.25 0.25 95 1005.3
20260509095504 13 126 0.0 3.2 0.00 0.25 0.25 95 1005.4
20260509095004 13 126 1.6 4.8 0.00 0.25 0.25 95 1005.3
20260509094005 13 150 0.0 4.8 0.00 0.25 0.25 95 1005.2
20260509093504 13 57 1.6 4.8 0.00 0.25 0.25 95 1005.3
20260509093004 13 163 0.0 4.8 0.00 0.25 0.25 95 1005.3
20260509092004 13 113 1.6 4.8 0.00 0.25 0.25 95 1005.4
20260509091504 13 153 1.6 4.8 0.03 0.25 0.25 95 1005.5
20260509091005 13 98 0.0 1.6 0.03 0.25 0.25 95 1005.6
20260509090004 13 98 0.0 4.8 0.08 0.25 0.25 95 1005.7
20260509085504 13 90 0.0 1.6 0.08 0.25 0.25 95 1005.7
20260509085004 13 90 0.0 3.2 0.10 0.25 0.25 95 1005.6
20260509084504 13 90 3.2 4.8 0.10 0.25 0.25 95 1005.8
20260509084004 13 88 3.2 4.8 0.10 0.25 0.25 95 1005.7
20260509083005 13 70 3.2 4.8 0.13 0.25 0.25 95 1005.9
20260509082504 13 54 4.8 9.7 0.18 0.25 0.25 95 1006.1
20260509082005 13 336 3.2 4.8 0.23 0.25 0.25 95 1006.7
20260509081504 13 300 1.6 3.2 0.20 0.23 0.23 95 1006.7
20260509081005 13 300 1.6 3.2 0.20 0.23 0.23 94 1006.6
20260509080005 13 50 3.2 8.0 0.15 0.18 0.18 94 1006.5
20260509075505 13 128 1.6 4.8 0.15 0.18 0.18 94 1006.7
20260509075004 13 137 0.0 4.8 0.13 0.15 0.15 94 1006.7
20260509074504 13 94 1.6 4.8 0.13 0.15 0.15 94 1006.5
20260509074004 13 88 4.8 11.3 0.13 0.15 0.15 94 1006.4
20260509073504 13 3 4.8 9.7 0.13 0.15 0.15 94 1006.5
20260509072505 13 317 0.0 4.8 0.05 0.08 0.08 94 1007.3
20260509072004 13 32 0.0 4.8 0.00 0.03 0.03 94 1006.9
20260509071504 13 52 1.6 3.2 0.00 0.03 0.03 94 1006.9
20260509071004 13 52 1.6 4.8 0.00 0.03 0.03 94 1006.9
20260509070505 13 53 1.6 4.8 0.03 0.03 0.03 94 1006.7
20260509070004 13 53 3.2 12.9 0.03 0.03 0.03 94 1006.6
20260509065504 13 63 3.2 8.0 0.03 0.03 0.03 94 1006.8
20260509065004 14 47 1.6 4.8 0.03 0.03 0.03 94 1007.0
20260509064505 14 46 1.6 4.8 0.03 0.03 0.03 94 1007.1
20260509064005 14 46 3.2 4.8 0.03 0.03 0.03 94 1007.2
20260509063004 14 19 1.6 4.8 0.03 0.03 0.03 94 1007.1
20260509062504 14 8 1.6 4.8 0.03 0.03 0.03 94 1007.2
20260509062004 14 8 1.6 4.8 0.03 0.03 0.03 93 1007.2
20260509061504 14 48 3.2 4.8 0.03 0.03 0.03 93 1007.2
20260509061005 14 49 1.6 4.8 0.03 0.03 0.03 93 1007.3
20260509060505 14 47 3.2 4.8 0.00 0.00 0.00 93 1007.3
20260509060005 14 28 3.2 8.0 0.00 0.00 0.00 93 1007.5
20260509055504 14 5 3.2 8.0 0.00 0.00 0.00 93 1007.5
20260509055005 14 15 3.2 9.7 0.00 0.00 0.00 93 1007.5
20260509054504 14 39 1.6 4.8 0.00 0.00 0.00 93 1007.5
20260509054005 14 31 1.6 4.8 0.00 0.00 0.00 93 1007.5
20260509053504 14 30 1.6 8.0 0.00 0.00 0.00 93 1007.5
20260509053005 14 26 3.2 4.8 0.00 0.00 0.00 93 1007.3
20260509052504 14 37 3.2 11.3 0.00 0.00 0.00 93 1007.2
20260509052005 14 61 4.8 8.0 0.00 0.00 0.00 93 1007.1
20260509051504 14 60 3.2 8.0 0.00 0.00 0.00 93 1007.2
20260509051005 14 80 1.6 8.0 0.00 0.00 0.00 93 1007.2
20260509050504 14 75 4.8 11.3 0.00 0.00 0.00 93 1007.2
20260509050005 14 33 3.2 9.7 0.00 0.00 0.00 93 1007.2
20260509045505 14 53 3.2 8.0 0.00 0.00 0.00 93 1007.2
20260509044004 15 36 3.2 8.0 0.00 0.00 0.00 93 1007.2
20260509043504 15 60 3.2 11.3 0.00 0.00 0.00 93 1007.2
20260509043005 15 28 1.6 8.0 0.00 0.00 0.00 93 1007.3
20260509042504 15 333 3.2 8.0 0.00 0.00 0.00 93 1007.4
20260509042004 15 355 3.2 4.8 0.00 0.00 0.00 93 1007.2
20260509041505 15 11 3.2 8.0 0.00 0.00 0.00 93 1007.1
20260509040505 15 33 3.2 4.8 0.00 0.00 0.00 92 1007.0
20260509040006 15 42 1.6 3.2 0.00 0.00 0.00 92 1007.0
20260509035505 15 42 0.0 4.8 0.00 0.00 0.00 92 1007.2
20260509034506 15 55 0.0 4.8 0.00 0.00 0.00 92 1007.2
20260509033506 15 45 1.6 4.8 0.00 0.00 0.00 92 1007.2
20260509033006 15 30 3.2 4.8 0.00 0.00 0.00 91 1007.1
20260509032506 15 28 3.2 4.8 0.00 0.00 0.00 91 1007.2
20260509032005 15 23 1.6 4.8 0.00 0.00 0.00 91 1007.2
20260509031005 15 46 0.0 1.6 0.00 0.00 0.00 91 1007.0
20260509030505 15 47 0.0 3.2 0.00 0.00 0.00 91 1006.9
20260509030005 15 47 0.0 1.6 0.00 0.00 0.00 91 1007.0
20260509025505 15 47 1.6 3.2 0.00 0.00 0.00 91 1007.0
20260509025006 15 47 1.6 4.8 0.00 0.00 0.00 91 1007.1
20260509024505 15 47 1.6 4.8 0.00 0.00 0.00 90 1007.1
20260509024005 15 28 0.0 1.6 0.00 0.00 0.00 90 1007.1
20260509023505 15 28 0.0 3.2 0.00 0.00 0.00 90 1007.2
20260509023006 16 21 1.6 4.8 0.00 0.00 0.00 89 1007.2
20260509022506 16 5 0.0 8.0 0.00 0.00 0.00 89 1007.1
20260509022005 16 354 3.2 4.8 0.00 0.00 0.00 89 1007.2
20260509020006 16 317 4.8 8.0 0.00 0.00 0.00 86 1007.2
20260509015505 16 22 0.0 3.2 0.00 0.00 0.00 85 1007.1
20260509015006 16 22 0.0 1.6 0.00 0.00 0.00 84 1007.0
20260509014505 16 22 3.2 4.8 0.00 0.00 0.00 83 1006.9
20260509014006 17 23 1.6 4.8 0.00 0.00 0.00 82 1007.0
20260509013506 17 23 1.6 4.8 0.00 0.00 0.00 81 1007.0
20260509012006 17 306 3.2 4.8 0.00 0.00 0.00 77 1007.0
20260509011506 17 296 1.6 3.2 0.00 0.00 0.00 76 1006.8
20260509011005 18 296 0.0 1.6 0.00 0.00 0.00 75 1006.8
20260509010506 18 296 1.6 12.9 0.00 0.00 0.00 73 1006.8
20260509010005 18 359 6.4 12.9 0.00 0.00 0.00 72 1006.8
20260509005506 19 19 4.8 14.5 0.00 0.00 0.00 69 1006.8
20260509005005 20 14 8.0 24.1 0.00 0.00 0.00 66 1007.0
20260509004505 20 347 8.0 24.1 0.00 0.00 0.00 57 1006.6
20260509003506 20 186 4.8 9.7 0.00 0.00 0.00 56 1006.3
20260509003006 20 189 4.8 8.0 0.00 0.00 0.00 55 1006.4
20260509002505 20 194 8.0 12.9 0.00 0.00 0.00 55 1006.4
20260509002005 20 188 8.0 19.3 0.00 0.00 0.00 55 1006.3
20260509001506 20 196 8.0 19.3 0.00 0.00 0.00 55 1006.4
20260509001006 20 197 8.0 19.3 0.00 0.00 0.00 55 1006.3
20260509000505 21 204 9.7 22.5 0.00 0.00 0.00 55 1006.4
20260509000005 21 183 6.4 16.1 0.00 0.00 0.00 55 1006.4
20260508235505 21 187 9.7 19.3 0.00 0.00 0.00 55 1006.5
20260508234005 21 190 9.7 14.5 0.00 0.00 0.00 54 1006.4
20260508233505 21 191 9.7 16.1 0.00 0.00 0.00 53 1006.4
20260508233006 21 194 9.7 16.1 0.00 0.00 0.00 54 1006.4
20260508232505 21 195 14.5 22.5 0.00 0.00 0.00 53 1006.4
20260508232005 21 193 9.7 19.3 0.00 0.00 0.00 53 1006.5
20260508231005 21 200 9.7 22.5 0.00 0.00 0.00 53 1006.8
20260508230505 21 214 12.9 22.5 0.00 0.00 0.00 52 1006.8
20260508230006 21 202 14.5 22.5 0.00 0.00 0.00 51 1006.9
20260508225005 22 210 11.3 22.5 0.00 0.00 0.00 52 1006.8
20260508223505 22 212 12.9 20.9 0.00 0.00 0.00 51 1006.8
20260508223006 22 203 11.3 24.1 0.00 0.00 0.00 50 1006.9
20260508222505 22 201 11.3 22.5 0.00 0.00 0.00 51 1006.9
20260508222005 22 217 11.3 27.4 0.00 0.00 0.00 49 1006.9
20260508221505 23 198 12.9 24.1 0.00 0.00 0.00 49 1006.8
20260508220505 22 217 9.7 19.3 0.00 0.00 0.00 51 1007.0
20260508220005 22 201 11.3 24.1 0.00 0.00 0.00 49 1006.9
20260508215505 22 207 9.7 19.3 0.00 0.00 0.00 50 1006.9
20260508215006 22 190 8.0 20.9 0.00 0.00 0.00 51 1007.0
20260508214505 22 215 14.5 24.1 0.00 0.00 0.00 50 1007.0
20260508214006 22 190 11.3 24.1 0.00 0.00 0.00 52 1007.0
20260508213006 21 187 11.3 20.9 0.00 0.00 0.00 52 1007.1
20260508212505 21 191 9.7 19.3 0.00 0.00 0.00 53 1007.2
20260508212005 21 211 8.0 16.1 0.00 0.00 0.00 52 1007.3
20260508211505 21 209 14.5 24.1 0.00 0.00 0.00 51 1007.4
20260508210505 21 225 12.9 22.5 0.00 0.00 0.00 51 1007.3
20260508210005 22 218 17.7 29.0 0.00 0.00 0.00 51 1007.4
20260508205505 22 219 16.1 27.4 0.00 0.00 0.00 50 1007.4
20260508204506 21 222 16.1 22.5 0.00 0.00 0.00 51 1007.5
20260508204006 21 210 14.5 27.4 0.00 0.00 0.00 52 1007.5
20260508203505 21 217 11.3 22.5 0.00 0.00 0.00 52 1007.6
20260508203006 21 222 16.1 32.2 0.00 0.00 0.00 51 1007.6
20260508202505 21 220 14.5 20.9 0.00 0.00 0.00 52 1007.8
20260508202005 21 217 16.1 29.0 0.00 0.00 0.00 52 1007.9
20260508201505 21 211 12.9 22.5 0.00 0.00 0.00 53 1008.0
20260508200505 21 213 11.3 29.0 0.00 0.00 0.00 52 1008.2
20260508200005 21 201 17.7 27.4 0.00 0.00 0.00 50 1008.2
20260508195505 21 208 12.9 33.8 0.00 0.00 0.00 51 1008.1
20260508195005 22 192 17.7 25.7 0.00 0.00 0.00 50 1008.3
20260508194505 22 201 14.5 27.4 0.00 0.00 0.00 50 1008.3
20260508194005 22 202 14.5 32.2 0.00 0.00 0.00 49 1008.4
20260508193505 22 212 19.3 29.0 0.00 0.00 0.00 50 1008.5
20260508193005 22 215 14.5 24.1 0.00 0.00 0.00 50 1008.4
20260508192506 21 201 16.1 29.0 0.00 0.00 0.00 50 1008.5
20260508191505 22 205 17.7 29.0 0.00 0.00 0.00 49 1008.6
20260508191005 22 192 19.3 32.2 0.00 0.00 0.00 49 1008.7
20260508190506 22 215 14.5 27.4 0.00 0.00 0.00 49 1008.7
20260508190005 22 193 17.7 33.8 0.00 0.00 0.00 48 1008.8
20260508185505 22 197 19.3 32.2 0.00 0.00 0.00 48 1008.8
20260508185005 22 187 11.3 27.4 0.00 0.00 0.00 49 1009.0
20260508184506 22 202 14.5 29.0 0.00 0.00 0.00 49 1009.2
20260508184005 22 227 16.1 37.0 0.00 0.00 0.00 48 1009.2
20260508183505 22 212 16.1 29.0 0.00 0.00 0.00 48 1009.3
20260508182505 22 211 20.9 35.4 0.00 0.00 0.00 47 1009.6
20260508181505 22 218 14.5 32.2 0.00 0.00 0.00 50 1009.6
20260508181005 22 205 19.3 25.7 0.00 0.00 0.00 49 1009.7
20260508180505 22 201 16.1 24.1 0.00 0.00 0.00 50 1009.8
20260508180005 21 232 16.1 27.4 0.00 0.00 0.00 49 1009.9
20260508175505 21 198 16.1 25.7 0.00 0.00 0.00 50 1009.8
20260508175005 21 185 16.1 32.2 0.00 0.00 0.00 50 1010.0
20260508174505 21 200 16.1 29.0 0.00 0.00 0.00 49 1010.1